Private Wetterstation Wechselburg
Wetterdaten: Montag, 20.12.2021
Datum Zeit Temp. +2m Bodentemp. Temp.+5cm Temp. Wind Windchill X Diff Temp. Feuchte +2m Feuchte +5cm Luftdruck Regen Wind Richtung Richtung Sonnenschein Taupunkt Windchill Windben
20.12.2021 00:03 4,5 C 8,2 C 3,7 C 4,6 C 4,6 C 0,1 C 87 % 93 % 1022,7 hPa 0,0 l/m 2,6 km/h (1 Bft) N-NW 337 0 min 2,5 C 4,6 C 0,0 km/h (0 Bft)
20.12.2021 00:08 4,4 C 8,2 C 3,5 C 4,4 C 4,4 C 0,0 C 87 % 93 % 1022,6 hPa 0,0 l/m 2,3 km/h (1 Bft) N-NO 22 0 min 2,4 C 4,4 C 2,7 km/h (1 Bft)
20.12.2021 00:13 4,3 C 8,2 C 3,3 C 4,2 C 3,9 C 0,0 C 87 % 93 % 1022,6 hPa 0,0 l/m 2,1 km/h (1 Bft) W 270 0 min 2,3 C 3,9 C 10,8 km/h (2 Bft)
20.12.2021 00:18 4,3 C 8,2 C 3,2 C 4,0 C 3,5 C 0,0 C 87 % 93 % 1022,6 hPa 0,0 l/m 3,2 km/h (1 Bft) SO 135 0 min 2,3 C 3,5 C 3,5 km/h (1 Bft)
20.12.2021 00:23 4,1 C 8,2 C 3,2 C 3,9 C 3,5 C 0,0 C 87 % 93 % 1022,6 hPa 0,0 l/m 2,4 km/h (1 Bft) N-NW 337 0 min 2,1 C 3,5 C 6,3 km/h (2 Bft)
20.12.2021 00:28 4,0 C 8,2 C 3,1 C 3,8 C 3,5 C 0,0 C 88 % 93 % 1022,9 hPa 0,0 l/m 1,4 km/h (1 Bft) N-NW 337 0 min 2,2 C 3,5 C 0,0 km/h (0 Bft)
20.12.2021 00:33 4,0 C 8,2 C 3,1 C 3,8 C 3,5 C 0,0 C 88 % 93 % 1022,9 hPa 0,0 l/m 1,3 km/h (1 Bft) W-SW 247 0 min 2,2 C 3,5 C 2,9 km/h (1 Bft)
20.12.2021 00:38 3,9 C 8,2 C 3,1 C 3,8 C 3,5 C 0,0 C 88 % 93 % 1022,9 hPa 0,0 l/m 1,0 km/h (0 Bft) S 180 0 min 2,1 C 3,5 C 1,6 km/h (1 Bft)
20.12.2021 00:43 3,9 C 8,2 C 2,8 C 3,7 C 3,2 C 0,0 C 88 % 93 % 1022,9 hPa 0,0 l/m 1,4 km/h (1 Bft) W-SW 247 0 min 2,1 C 3,2 C 4,5 km/h (1 Bft)
20.12.2021 00:48 3,8 C 8,2 C 2,7 C 3,5 C 3,0 C 0,0 C 88 % 93 % 1023,2 hPa 0,0 l/m 1,4 km/h (1 Bft) NW 315 0 min 2,0 C 3,0 C 0,0 km/h (0 Bft)
20.12.2021 00:53 3,7 C 8,2 C 2,7 C 3,4 C 2,9 C 0,0 C 88 % 94 % 1023,2 hPa 0,0 l/m 1,0 km/h (0 Bft) W-SW 247 0 min 1,9 C 2,9 C 0,0 km/h (0 Bft)
20.12.2021 00:58 3,6 C 8,2 C 2,8 C 3,4 C 3,0 C 0,0 C 87 % 94 % 1023,2 hPa 0,0 l/m 0,8 km/h (0 Bft) NW 315 0 min 1,6 C 3,0 C 0,0 km/h (0 Bft)
20.12.2021 01:03 3,6 C 8,2 C 2,8 C 3,5 C 3,2 C 0,0 C 87 % 94 % 1023,2 hPa 0,0 l/m 0,8 km/h (0 Bft) W 270 0 min 1,6 C 3,2 C 0,0 km/h (0 Bft)
20.12.2021 01:08 3,6 C 8,2 C 2,8 C 3,5 C 3,2 C 0,0 C 88 % 94 % 1023,2 hPa 0,0 l/m 1,0 km/h (0 Bft) N-NW 337 0 min 1,8 C 3,2 C 0,0 km/h (0 Bft)
20.12.2021 01:13 3,6 C 8,1 C 2,8 C 3,5 C 3,2 C 0,0 C 88 % 94 % 1023,2 hPa 0,0 l/m 1,9 km/h (1 Bft) W 270 0 min 1,8 C 3,2 C 4,2 km/h (1 Bft)
20.12.2021 01:18 3,6 C 8,1 C 2,7 C 3,4 C 3,1 C 0,0 C 88 % 93 % 1023,2 hPa 0,0 l/m 1,8 km/h (1 Bft) W-SW 247 0 min 1,8 C 3,1 C 0,0 km/h (0 Bft)
20.12.2021 01:23 3,4 C 8,1 C 2,5 C 3,2 C 2,8 C 0,0 C 88 % 93 % 1023,2 hPa 0,0 l/m 1,4 km/h (1 Bft) W 270 0 min 1,6 C 2,8 C 0,0 km/h (0 Bft)
20.12.2021 01:28 3,4 C 8,1 C 2,3 C 3,1 C 2,6 C 0,0 C 88 % 94 % 1023,1 hPa 0,0 l/m 0,8 km/h (0 Bft) NW 315 0 min 1,6 C 2,6 C 0,0 km/h (0 Bft)
20.12.2021 01:33 3,3 C 8,1 C 2,3 C 3,0 C 2,3 C 0,0 C 88 % 94 % 1023,1 hPa 0,0 l/m 0,8 km/h (0 Bft) O 90 0 min 1,5 C 2,3 C 5,0 km/h (1 Bft)
20.12.2021 01:38 3,2 C 8,1 C 2,3 C 2,9 C 2,4 C 0,0 C 88 % 94 % 1023,1 hPa 0,0 l/m 0,8 km/h (0 Bft) NW 315 0 min 1,4 C 2,4 C 0,0 km/h (0 Bft)
20.12.2021 01:43 3,3 C 8,1 C 2,4 C 3,1 C 2,6 C 0,0 C 88 % 94 % 1023,1 hPa 0,0 l/m 1,1 km/h (1 Bft) NW 315 0 min 1,5 C 2,6 C 1,6 km/h (1 Bft)
20.12.2021 01:48 3,2 C 8,1 C 2,5 C 3,0 C 2,7 C 0,0 C 88 % 94 % 1023,2 hPa 0,0 l/m 1,3 km/h (1 Bft) W-NW 292 0 min 1,4 C 2,7 C 7,7 km/h (2 Bft)
20.12.2021 01:53 3,2 C 8,1 C 2,3 C 3,0 C 2,5 C 0,0 C 88 % 94 % 1023,2 hPa 0,0 l/m 3,1 km/h (1 Bft) W-SW 247 0 min 1,4 C 2,5 C 5,8 km/h (2 Bft)
20.12.2021 01:58 3,1 C 8,1 C 2,2 C 2,8 C 2,2 C 0,0 C 88 % 93 % 1023,2 hPa 0,0 l/m 3,1 km/h (1 Bft) SW 225 0 min 1,3 C 2,2 C 0,0 km/h (0 Bft)
20.12.2021 02:03 3,0 C 8,1 C 1,9 C 2,7 C 2,0 C 0,0 C 88 % 94 % 1023,2 hPa 0,0 l/m 1,6 km/h (1 Bft) W 270 0 min 1,2 C 2,0 C 0,0 km/h (0 Bft)
20.12.2021 02:08 2,8 C 8,1 C 1,8 C 2,5 C 1,8 C 0,0 C 88 % 94 % 1023,2 hPa 0,0 l/m 1,1 km/h (1 Bft) SW 225 0 min 1,0 C 1,8 C 0,0 km/h (0 Bft)
20.12.2021 02:13 2,7 C 8,1 C 1,5 C 2,3 C 1,4 C 0,0 C 88 % 94 % 1023,2 hPa 0,0 l/m 0,6 km/h (0 Bft) NW 315 0 min 0,9 C 1,4 C 3,4 km/h (1 Bft)
20.12.2021 02:18 2,7 C 8,1 C 1,5 C 2,2 C 1,2 C 0,0 C 88 % 94 % 1023,2 hPa 0,0 l/m 0,8 km/h (0 Bft) SW 225 0 min 0,9 C 1,2 C 4,8 km/h (1 Bft)
20.12.2021 02:23 2,4 C 8,1 C 1,3 C 1,9 C 0,9 C 0,0 C 88 % 94 % 1023,2 hPa 0,0 l/m 1,0 km/h (0 Bft) W-NW 292 0 min 0,6 C 0,9 C 0,0 km/h (0 Bft)
20.12.2021 02:28 2,3 C 8,1 C 1,1 C 1,8 C 0,8 C 0,0 C 88 % 93 % 1023,4 hPa 0,0 l/m 1,0 km/h (0 Bft) NW 315 0 min 0,5 C 0,8 C 3,1 km/h (1 Bft)
20.12.2021 02:33 2,2 C 8,1 C 1,0 C 1,7 C 0,6 C 0,0 C 88 % 94 % 1023,4 hPa 0,0 l/m 0,5 km/h (0 Bft) N-NO 22 0 min 0,4 C 0,6 C 0,0 km/h (0 Bft)
20.12.2021 02:38 2,0 C 8,1 C 0,9 C 1,4 C 0,3 C 0,0 C 88 % 94 % 1023,4 hPa 0,0 l/m 0,2 km/h (0 Bft) N-NO 22 0 min 0,2 C 0,3 C 0,0 km/h (0 Bft)
20.12.2021 02:43 1,9 C 8,1 C 0,7 C 1,3 C 0,2 C 0,0 C 88 % 94 % 1023,4 hPa 0,0 l/m 0,5 km/h (0 Bft) W 270 0 min 0,1 C 0,2 C 1,9 km/h (1 Bft)
20.12.2021 02:48 1,8 C 8,0 C 0,6 C 1,2 C 0,1 C 0,0 C 88 % 94 % 1023,5 hPa 0,0 l/m 0,5 km/h (0 Bft) W 270 0 min 0,0 C 0,1 C 0,0 km/h (0 Bft)
20.12.2021 02:53 1,7 C 8,0 C 0,4 C 1,1 C 0,0 C 0,0 C 88 % 94 % 1023,5 hPa 0,0 l/m 0,3 km/h (0 Bft) W-SW 247 0 min -0,1 C 0,0 C 0,0 km/h (0 Bft)
20.12.2021 02:58 1,7 C 8,0 C 0,3 C 1,1 C -0,1 C 0,0 C 88 % 94 % 1023,5 hPa 0,0 l/m 0,2 km/h (0 Bft) W-SW 247 0 min -0,1 C -0,1 C 0,0 km/h (0 Bft)
20.12.2021 03:03 1,6 C 8,1 C 0,2 C 1,0 C -0,2 C 0,0 C 88 % 94 % 1023,5 hPa 0,0 l/m 0,0 km/h (0 Bft) W-SW 247 0 min -0,2 C -0,2 C 0,0 km/h (0 Bft)
20.12.2021 03:08 1,5 C 8,1 C 0,0 C 0,9 C -0,4 C 0,0 C 88 % 94 % 1024,0 hPa 0,0 l/m 0,2 km/h (0 Bft) W-SW 247 0 min -0,3 C -0,4 C 1,9 km/h (1 Bft)
20.12.2021 03:13 1,3 C 8,0 C -0,1 C 0,7 C -0,5 C 0,0 C 88 % 94 % 1024,0 hPa 0,0 l/m 0,2 km/h (0 Bft) W-SW 247 0 min -0,5 C -0,5 C 0,0 km/h (0 Bft)
20.12.2021 03:18 1,2 C 8,1 C -0,2 C 0,6 C -0,6 C 0,0 C 88 % 94 % 1024,0 hPa 0,0 l/m 0,2 km/h (0 Bft) W-SW 247 0 min -0,6 C -0,6 C 0,0 km/h (0 Bft)
20.12.2021 03:23 1,1 C 8,1 C -0,3 C 0,5 C -0,6 C 0,0 C 88 % 94 % 1024,0 hPa 0,0 l/m 0,2 km/h (0 Bft) W 270 0 min -0,7 C -0,6 C 0,0 km/h (0 Bft)
20.12.2021 03:28 1,1 C 8,1 C -0,3 C 0,5 C -0,8 C 0,0 C 88 % 94 % 1023,6 hPa 0,0 l/m 0,3 km/h (0 Bft) W-SW 247 0 min -0,7 C -0,8 C 2,1 km/h (1 Bft)
20.12.2021 03:33 0,9 C 8,2 C -0,3 C 0,3 C -0,9 C 0,0 C 88 % 94 % 1023,6 hPa 0,0 l/m 0,2 km/h (0 Bft) W-SW 247 0 min -0,9 C -0,9 C 0,0 km/h (0 Bft)
20.12.2021 03:38 0,8 C 8,1 C -0,4 C 0,3 C -0,8 C 0,0 C 88 % 94 % 1023,6 hPa 0,0 l/m 0,5 km/h (0 Bft) W-SW 247 0 min -1,0 C -0,8 C 0,0 km/h (0 Bft)
20.12.2021 03:43 0,9 C 8,1 C -0,4 C 0,3 C -1,0 C 0,0 C 88 % 94 % 1023,6 hPa 0,0 l/m 0,3 km/h (0 Bft) W-SW 247 0 min -0,9 C -1,0 C 0,0 km/h (0 Bft)
20.12.2021 03:48 0,8 C 8,1 C -0,5 C 0,2 C -1,1 C 0,0 C 88 % 94 % 1023,4 hPa 0,0 l/m 0,0 km/h (0 Bft) W-SW 247 0 min -1,0 C -1,1 C 0,0 km/h (0 Bft)
20.12.2021 03:53 0,7 C 8,1 C -0,4 C 0,1 C -1,0 C 0,0 C 88 % 94 % 1023,4 hPa 0,0 l/m 0,5 km/h (0 Bft) W-SW 247 0 min -1,1 C -1,0 C 0,0 km/h (0 Bft)
20.12.2021 03:58 0,7 C 8,1 C -0,4 C 0,1 C -1,0 C 0,0 C 88 % 94 % 1023,4 hPa 0,0 l/m 0,5 km/h (0 Bft) W-SW 247 0 min -1,1 C -1,0 C 0,0 km/h (0 Bft)
20.12.2021 04:03 0,7 C 8,1 C -0,4 C 0,1 C -1,0 C 0,0 C 88 % 95 % 1023,4 hPa 0,0 l/m 0,3 km/h (0 Bft) W-SW 247 0 min -1,1 C -1,0 C 0,0 km/h (0 Bft)
20.12.2021 04:08 0,6 C 7,9 C -0,5 C 0,1 C -1,0 C 0,0 C 88 % 94 % 1023,9 hPa 0,0 l/m 0,3 km/h (0 Bft) W-SW 247 0 min -1,2 C -1,0 C 0,0 km/h (0 Bft)
20.12.2021 04:13 0,7 C 7,9 C -0,5 C 0,1 C -1,0 C 0,0 C 88 % 94 % 1023,9 hPa 0,0 l/m 0,8 km/h (0 Bft) W-SW 247 0 min -1,1 C -1,0 C 0,0 km/h (0 Bft)
20.12.2021 04:18 0,7 C 7,9 C -0,5 C 0,1 C -1,0 C 0,0 C 88 % 95 % 1023,9 hPa 0,0 l/m 1,3 km/h (1 Bft) W-SW 247 0 min -1,1 C -1,0 C 2,7 km/h (1 Bft)
20.12.2021 04:23 0,5 C 7,9 C -0,7 C 0,0 C -1,0 C 0,0 C 88 % 94 % 1023,9 hPa 0,0 l/m 0,8 km/h (0 Bft) W-SW 247 0 min -1,3 C -1,0 C 0,0 km/h (0 Bft)
20.12.2021 04:28 0,4 C 7,9 C -0,7 C -0,1 C -1,2 C 0,0 C 89 % 95 % 1024,0 hPa 0,0 l/m 0,3 km/h (0 Bft) SW 225 0 min -1,2 C -1,2 C 0,0 km/h (0 Bft)
20.12.2021 04:33 0,4 C 7,9 C -0,8 C -0,2 C -1,4 C 0,0 C 89 % 95 % 1024,0 hPa 0,0 l/m 0,0 km/h (0 Bft) W 270 0 min -1,2 C -1,4 C 2,1 km/h (1 Bft)
20.12.2021 04:38 0,4 C 7,9 C -0,8 C -0,2 C -1,3 C 0,0 C 88 % 95 % 1024,0 hPa 0,0 l/m 0,3 km/h (0 Bft) W 270 0 min -1,3 C -1,3 C 0,0 km/h (0 Bft)
20.12.2021 04:43 0,3 C 7,9 C -0,8 C -0,2 C -1,3 C 0,0 C 89 % 95 % 1024,0 hPa 0,0 l/m 0,3 km/h (0 Bft) SW 225 0 min -1,3 C -1,3 C 0,0 km/h (0 Bft)
20.12.2021 04:48 0,3 C 7,9 C -0,9 C -0,3 C -1,4 C 0,0 C 89 % 95 % 1024,2 hPa 0,0 l/m 0,2 km/h (0 Bft) W-SW 247 0 min -1,3 C -1,4 C 0,0 km/h (0 Bft)
20.12.2021 04:53 0,3 C 7,9 C -0,9 C -0,3 C -1,4 C 0,0 C 89 % 95 % 1024,2 hPa 0,0 l/m 0,3 km/h (0 Bft) SW 225 0 min -1,3 C -1,4 C 2,3 km/h (1 Bft)
20.12.2021 04:58 0,3 C 7,9 C -0,9 C -0,3 C -1,4 C 0,0 C 89 % 95 % 1024,2 hPa 0,0 l/m 0,5 km/h (0 Bft) W-SW 247 0 min -1,3 C -1,4 C 2,4 km/h (1 Bft)
20.12.2021 05:03 0,1 C 7,8 C -0,9 C -0,4 C -1,4 C 0,0 C 89 % 95 % 1024,2 hPa 0,0 l/m 0,6 km/h (0 Bft) SW 225 0 min -1,5 C -1,4 C 1,9 km/h (1 Bft)
20.12.2021 05:08 0,1 C 7,8 C -1,0 C -0,4 C -1,4 C 0,0 C 89 % 95 % 1023,5 hPa 0,0 l/m 1,0 km/h (0 Bft) SW 225 0 min -1,5 C -1,4 C 1,8 km/h (1 Bft)
20.12.2021 05:13 0,1 C 7,8 C -1,0 C -0,3 C -1,2 C 0,0 C 89 % 95 % 1023,5 hPa 0,0 l/m 1,8 km/h (1 Bft) W 270 0 min -1,5 C -1,2 C 0,0 km/h (0 Bft)
20.12.2021 05:18 0,1 C 7,8 C -1,1 C -0,4 C -1,3 C 0,0 C 89 % 95 % 1023,5 hPa 0,0 l/m 1,6 km/h (1 Bft) W-SW 247 0 min -1,5 C -1,3 C 1,8 km/h (1 Bft)
20.12.2021 05:23 0,0 C 7,8 C -1,0 C -0,5 C -1,4 C 0,0 C 89 % 95 % 1023,5 hPa 0,0 l/m 1,4 km/h (1 Bft) W-SW 247 0 min -1,6 C -1,4 C 2,3 km/h (1 Bft)
20.12.2021 05:28 0,0 C 7,8 C -1,0 C -0,4 C -1,3 C 0,0 C 89 % 95 % 1024,6 hPa 0,0 l/m 2,1 km/h (1 Bft) SW 225 0 min -1,6 C -1,3 C 1,8 km/h (1 Bft)
20.12.2021 05:33 0,0 C 7,8 C -1,1 C -0,4 C -1,3 C 0,0 C 89 % 95 % 1024,6 hPa 0,0 l/m 1,8 km/h (1 Bft) W-SW 247 0 min -1,6 C -1,3 C 2,6 km/h (1 Bft)
20.12.2021 05:38 -0,1 C 7,8 C -1,1 C -0,5 C -1,3 C 0,0 C 89 % 95 % 1024,6 hPa 0,0 l/m 1,8 km/h (1 Bft) S-SW 202 0 min -1,7 C -1,3 C 3,2 km/h (1 Bft)
20.12.2021 05:43 0,1 C 7,7 C -1,1 C -0,4 C -1,3 C 0,0 C 89 % 95 % 1024,6 hPa 0,0 l/m 2,3 km/h (1 Bft) S-SW 202 0 min -1,5 C -1,3 C 1,8 km/h (1 Bft)
20.12.2021 05:48 0,1 C 7,7 C -1,1 C -0,4 C -1,4 C 0,0 C 89 % 95 % 1024,6 hPa 0,0 l/m 2,4 km/h (1 Bft) SW 225 0 min -1,5 C -1,4 C 2,4 km/h (1 Bft)
20.12.2021 05:53 -0,1 C 7,7 C -1,1 C -0,5 C -1,4 C 0,0 C 89 % 95 % 1024,6 hPa 0,0 l/m 1,6 km/h (1 Bft) W-SW 247 0 min -1,7 C -1,4 C 0,0 km/h (0 Bft)
20.12.2021 05:58 -0,1 C 7,7 C -1,2 C -0,6 C -1,5 C 0,0 C 89 % 95 % 1024,6 hPa 0,0 l/m 1,3 km/h (1 Bft) W-SW 247 0 min -1,7 C -1,5 C 4,0 km/h (1 Bft)
20.12.2021 06:03 -0,1 C 7,7 C -1,2 C -0,6 C -1,5 C 0,0 C 89 % 95 % 1024,6 hPa 0,0 l/m 1,1 km/h (1 Bft) SW 225 0 min -1,7 C -1,5 C 1,8 km/h (1 Bft)
20.12.2021 06:08 -0,1 C 7,7 C -1,2 C -0,6 C -1,5 C 0,0 C 89 % 95 % 1024,2 hPa 0,0 l/m 1,8 km/h (1 Bft) S-SW 202 0 min -1,7 C -1,5 C 3,1 km/h (1 Bft)
20.12.2021 06:13 -0,1 C 7,7 C -1,2 C -0,6 C -1,5 C 0,0 C 89 % 95 % 1024,2 hPa 0,0 l/m 1,9 km/h (1 Bft) W-SW 247 0 min -1,7 C -1,5 C 4,3 km/h (1 Bft)
20.12.2021 06:18 -0,1 C 7,7 C -1,2 C -0,6 C -1,5 C 0,0 C 89 % 95 % 1024,2 hPa 0,0 l/m 2,3 km/h (1 Bft) W-SW 247 0 min -1,7 C -1,5 C 3,4 km/h (1 Bft)
20.12.2021 06:23 -0,1 C 7,6 C -1,2 C -0,6 C -1,7 C 0,0 C 89 % 95 % 1024,2 hPa 0,0 l/m 2,6 km/h (1 Bft) SW 225 0 min -1,7 C -1,7 C 2,3 km/h (1 Bft)
20.12.2021 06:28 -0,1 C 7,6 C -1,3 C -0,6 C -1,5 C 0,0 C 89 % 95 % 1024,3 hPa 0,0 l/m 2,3 km/h (1 Bft) W-SW 247 0 min -1,7 C -1,5 C 3,9 km/h (1 Bft)
20.12.2021 06:33 -0,1 C 7,6 C -1,3 C -0,6 C -1,6 C 0,0 C 89 % 95 % 1024,3 hPa 0,0 l/m 1,6 km/h (1 Bft) W-SW 247 0 min -1,7 C -1,6 C 3,4 km/h (1 Bft)
20.12.2021 06:38 -0,1 C 7,6 C -1,3 C -0,6 C -1,6 C 0,0 C 89 % 95 % 1024,3 hPa 0,0 l/m 1,8 km/h (1 Bft) W-SW 247 0 min -1,7 C -1,6 C 2,6 km/h (1 Bft)
20.12.2021 06:43 -0,1 C 7,6 C -1,3 C -0,6 C -1,6 C 0,0 C 89 % 95 % 1024,3 hPa 0,0 l/m 1,6 km/h (1 Bft) SW 225 0 min -1,7 C -1,6 C 2,6 km/h (1 Bft)
20.12.2021 06:48 -0,1 C 7,6 C -1,3 C -0,6 C -1,6 C 0,0 C 89 % 95 % 1025,1 hPa 0,0 l/m 1,9 km/h (1 Bft) S-SW 202 0 min -1,7 C -1,6 C 4,8 km/h (1 Bft)
20.12.2021 06:53 -0,1 C 7,6 C -1,3 C -0,6 C -1,6 C 0,0 C 89 % 95 % 1025,1 hPa 0,0 l/m 1,9 km/h (1 Bft) W-SW 247 0 min -1,7 C -1,6 C 4,0 km/h (1 Bft)
20.12.2021 06:58 -0,3 C 7,6 C -1,4 C -0,8 C -1,7 C 0,0 C 89 % 95 % 1025,1 hPa 0,0 l/m 1,8 km/h (1 Bft) SW 225 0 min -1,9 C -1,7 C 4,0 km/h (1 Bft)
20.12.2021 07:03 -0,3 C 7,5 C -1,3 C -0,8 C -1,7 C 0,0 C 89 % 95 % 1025,1 hPa 0,0 l/m 2,1 km/h (1 Bft) W-SW 247 0 min -1,9 C -1,7 C 2,9 km/h (1 Bft)
20.12.2021 07:08 -0,3 C 7,6 C -1,4 C -0,8 C -1,7 C 0,0 C 89 % 95 % 1025,4 hPa 0,0 l/m 1,6 km/h (1 Bft) W 270 0 min -1,9 C -1,7 C 0,0 km/h (0 Bft)
20.12.2021 07:13 -0,4 C 7,5 C -1,5 C -0,9 C -1,8 C 0,0 C 89 % 95 % 1025,4 hPa 0,0 l/m 1,6 km/h (1 Bft) SW 225 0 min -2,0 C -1,8 C 4,0 km/h (1 Bft)
20.12.2021 07:18 -0,4 C 7,5 C -1,4 C -0,9 C -1,9 C 0,0 C 89 % 95 % 1025,4 hPa 0,0 l/m 2,4 km/h (1 Bft) SW 225 0 min -2,0 C -1,9 C 3,5 km/h (1 Bft)
20.12.2021 07:23 -0,4 C 7,5 C -1,5 C -0,9 C -1,8 C 0,0 C 89 % 95 % 1025,4 hPa 0,0 l/m 1,9 km/h (1 Bft) S 180 0 min -2,0 C -1,8 C 0,0 km/h (0 Bft)
20.12.2021 07:28 -0,5 C 7,5 C -1,6 C -1,0 C -1,9 C 0,0 C 88 % 95 % 1025,7 hPa 0,0 l/m 1,1 km/h (1 Bft) W-SW 247 0 min -2,2 C -1,9 C 1,9 km/h (1 Bft)
20.12.2021 07:33 -0,5 C 7,5 C -1,6 C -1,0 C -1,9 C 0,0 C 88 % 95 % 1025,7 hPa 0,0 l/m 1,1 km/h (1 Bft) W-SW 247 0 min -2,2 C -1,9 C 0,0 km/h (0 Bft)
20.12.2021 07:38 -0,5 C 7,5 C -1,6 C -1,0 C -1,9 C 0,0 C 88 % 95 % 1025,7 hPa 0,0 l/m 1,4 km/h (1 Bft) W 270 0 min -2,2 C -1,9 C 0,0 km/h (0 Bft)
20.12.2021 07:43 -0,5 C 7,5 C -1,7 C -1,0 C -2,0 C 0,0 C 88 % 95 % 1025,7 hPa 0,0 l/m 1,4 km/h (1 Bft) SW 225 0 min -2,2 C -2,0 C 3,9 km/h (1 Bft)
20.12.2021 07:48 -0,5 C 7,5 C -1,6 C -1,0 C -1,9 C 0,0 C 88 % 95 % 1025,7 hPa 0,0 l/m 1,6 km/h (1 Bft) W-SW 247 0 min -2,2 C -1,9 C 2,7 km/h (1 Bft)
20.12.2021 07:53 -0,5 C 7,5 C -1,7 C -1,0 C -1,9 C 0,0 C 88 % 95 % 1025,7 hPa 0,0 l/m 1,8 km/h (1 Bft) W 270 0 min -2,2 C -1,9 C 3,4 km/h (1 Bft)
20.12.2021 07:58 -0,5 C 7,5 C -1,7 C -1,0 C -1,9 C 0,0 C 88 % 95 % 1025,7 hPa 0,0 l/m 1,4 km/h (1 Bft) W-SW 247 0 min -2,2 C -1,9 C 2,3 km/h (1 Bft)
20.12.2021 08:03 -0,7 C 7,4 C -1,7 C -1,1 C -1,9 C 0,0 C 88 % 95 % 1025,7 hPa 0,0 l/m 1,8 km/h (1 Bft) SW 225 0 min -2,4 C -1,9 C 3,1 km/h (1 Bft)
20.12.2021 08:08 -0,7 C 7,4 C -1,7 C -1,1 C -2,0 C 0,0 C 88 % 95 % 1025,2 hPa 0,0 l/m 1,8 km/h (1 Bft) SW 225 0 min -2,4 C -2,0 C 2,9 km/h (1 Bft)
20.12.2021 08:13 -0,7 C 7,5 C -1,7 C -1,1 C -2,0 C 0,0 C 88 % 95 % 1025,2 hPa 0,0 l/m 1,4 km/h (1 Bft) W-SW 247 0 min -2,4 C -2,0 C 2,7 km/h (1 Bft)
20.12.2021 08:18 -0,8 C 7,4 C -1,8 C -1,2 C -2,0 C 0,0 C 88 % 95 % 1025,2 hPa 0,0 l/m 1,4 km/h (1 Bft) W-SW 247 0 min -2,5 C -2,0 C 2,1 km/h (1 Bft)
20.12.2021 08:23 -0,8 C 7,4 C -1,8 C -1,2 C -2,0 C 0,0 C 89 % 95 % 1025,2 hPa 0,0 l/m 1,6 km/h (1 Bft) W-SW 247 0 min -2,4 C -2,0 C 0,0 km/h (0 Bft)
20.12.2021 08:28 -0,8 C 7,4 C -1,7 C -1,2 C -2,0 C 0,0 C 89 % 95 % 1025,2 hPa 0,0 l/m 1,6 km/h (1 Bft) SW 225 0 min -2,4 C -2,0 C 1,9 km/h (1 Bft)
20.12.2021 08:33 -0,8 C 7,4 C -1,7 C -1,2 C -1,9 C 0,0 C 89 % 95 % 1025,2 hPa 0,0 l/m 1,3 km/h (1 Bft) SW 225 0 min -2,4 C -1,9 C 2,6 km/h (1 Bft)
20.12.2021 08:38 -0,8 C 7,4 C -1,7 C -1,2 C -1,9 C 0,0 C 89 % 95 % 1025,2 hPa 0,0 l/m 1,4 km/h (1 Bft) W 270 0 min -2,4 C -1,9 C 2,7 km/h (1 Bft)
20.12.2021 08:43 -0,8 C 7,3 C -1,6 C -1,2 C -1,9 C 0,0 C 89 % 95 % 1025,2 hPa 0,0 l/m 1,9 km/h (1 Bft) SW 225 0 min -2,4 C -1,9 C 2,3 km/h (1 Bft)
20.12.2021 08:48 -0,7 C 7,4 C -1,6 C -1,1 C -1,8 C 0,0 C 89 % 95 % 1025,2 hPa 0,0 l/m 2,1 km/h (1 Bft) SW 225 0 min -2,3 C -1,8 C 0,0 km/h (0 Bft)
20.12.2021 08:53 -0,7 C 7,3 C -1,6 C -1,1 C -1,8 C 0,0 C 89 % 95 % 1025,2 hPa 0,0 l/m 2,1 km/h (1 Bft) W-SW 247 0 min -2,3 C -1,8 C 2,3 km/h (1 Bft)
20.12.2021 08:58 -0,7 C 7,3 C -1,5 C -1,0 C -1,7 C 0,0 C 89 % 95 % 1025,2 hPa 0,0 l/m 2,3 km/h (1 Bft) W-SW 247 0 min -2,3 C -1,7 C 3,4 km/h (1 Bft)
20.12.2021 09:03 -0,7 C 7,3 C -1,4 C -1,1 C -1,9 C 0,0 C 89 % 95 % 1025,2 hPa 0,0 l/m 2,7 km/h (1 Bft) W-SW 247 0 min -2,3 C -1,9 C 0,0 km/h (0 Bft)
20.12.2021 09:08 -0,7 C 7,3 C -1,4 C -1,0 C -1,5 C 0,0 C 89 % 95 % 1025,5 hPa 0,0 l/m 2,3 km/h (1 Bft) W-NW 292 0 min -2,3 C -1,5 C 0,0 km/h (0 Bft)
20.12.2021 09:13 -0,7 C 7,3 C -1,4 C -1,0 C -1,6 C 0,0 C 89 % 95 % 1025,5 hPa 0,0 l/m 1,0 km/h (0 Bft) W-NW 292 0 min -2,3 C -1,6 C 0,0 km/h (0 Bft)
20.12.2021 09:18 -0,7 C 7,3 C -1,4 C -1,0 C -1,6 C 0,0 C 89 % 95 % 1025,5 hPa 0,0 l/m 0,5 km/h (0 Bft) SW 225 0 min -2,3 C -1,6 C 0,0 km/h (0 Bft)
20.12.2021 09:23 -0,6 C 7,2 C -1,3 C -0,8 C -1,3 C 0,0 C 89 % 95 % 1025,5 hPa 0,0 l/m 1,3 km/h (1 Bft) W-SW 247 0 min -2,2 C -1,3 C 1,6 km/h (1 Bft)
20.12.2021 09:28 -0,5 C 7,2 C -1,3 C -0,8 C -1,3 C 0,0 C 89 % 95 % 1025,5 hPa 0,0 l/m 1,6 km/h (1 Bft) S-SW 202 0 min -2,1 C -1,3 C 2,9 km/h (1 Bft)
20.12.2021 09:33 -0,5 C 7,2 C -1,2 C -0,7 C -1,2 C 0,0 C 89 % 95 % 1025,5 hPa 0,0 l/m 1,3 km/h (1 Bft) SW 225 0 min -2,1 C -1,2 C 2,1 km/h (1 Bft)
20.12.2021 09:38 -0,5 C 7,2 C -1,2 C -0,7 C -1,1 C 0,0 C 89 % 95 % 1025,5 hPa 0,0 l/m 1,8 km/h (1 Bft) W-SW 247 0 min -2,1 C -1,1 C 2,6 km/h (1 Bft)
20.12.2021 09:43 -0,3 C 7,2 C -1,1 C -0,6 C -1,1 C 0,0 C 89 % 95 % 1025,5 hPa 0,0 l/m 2,4 km/h (1 Bft) W-SW 247 0 min -1,9 C -1,1 C 2,6 km/h (1 Bft)
20.12.2021 09:48 -0,3 C 7,2 C -1,0 C -0,5 C -0,9 C 0,0 C 89 % 95 % 1025,5 hPa 0,0 l/m 2,1 km/h (1 Bft) S-SW 202 0 min -1,9 C -0,9 C 2,1 km/h (1 Bft)
20.12.2021 09:53 -0,1 C 7,2 C -1,0 C -0,3 C -0,7 C 0,0 C 89 % 95 % 1025,5 hPa 0,0 l/m 2,3 km/h (1 Bft) S-SW 202 0 min -1,7 C -0,7 C 2,1 km/h (1 Bft)
20.12.2021 09:58 -0,1 C 7,2 C -0,9 C -0,4 C -0,9 C 0,0 C 89 % 95 % 1025,5 hPa 0,0 l/m 2,7 km/h (1 Bft) W-SW 247 0 min -1,7 C -0,9 C 3,4 km/h (1 Bft)
20.12.2021 10:03 0,1 C 7,1 C -0,9 C -0,1 C -0,4 C 0,0 C 89 % 95 % 1025,5 hPa 0,0 l/m 2,3 km/h (1 Bft) S-SW 202 0 min -1,5 C -0,4 C 5,0 km/h (1 Bft)
20.12.2021 10:08 0,1 C 7,1 C -0,8 C 0,0 C -0,2 C 0,0 C 89 % 95 % 1026,1 hPa 0,0 l/m 2,1 km/h (1 Bft) SW 225 0 min -1,5 C -0,2 C 3,9 km/h (1 Bft)
20.12.2021 10:13 0,2 C 7,1 C -0,7 C 0,1 C 0,0 C 0,0 C 89 % 95 % 1026,1 hPa 0,0 l/m 2,3 km/h (1 Bft) W-SW 247 0 min -1,4 C 0,0 C 2,3 km/h (1 Bft)
20.12.2021 10:18 0,2 C 7,1 C -0,7 C 0,2 C 0,1 C 0,0 C 89 % 95 % 1026,1 hPa 0,0 l/m 2,3 km/h (1 Bft) W-SW 247 0 min -1,4 C 0,1 C 2,9 km/h (1 Bft)
20.12.2021 10:23 0,4 C 7,1 C -0,6 C 0,3 C 0,2 C 0,0 C 89 % 95 % 1026,1 hPa 0,0 l/m 2,7 km/h (1 Bft) SW 225 0 min -1,2 C 0,2 C 3,5 km/h (1 Bft)
20.12.2021 10:28 0,4 C 7,1 C -0,5 C 0,4 C 0,3 C 0,0 C 89 % 95 % 1026,1 hPa 0,0 l/m 3,1 km/h (1 Bft) W-SW 247 0 min -1,2 C 0,3 C 4,8 km/h (1 Bft)
20.12.2021 10:33 0,6 C 7,1 C -0,4 C 0,4 C 0,0 C 0,0 C 89 % 95 % 1026,1 hPa 0,0 l/m 3,4 km/h (1 Bft) SW 225 0 min -1,0 C 0,0 C 3,2 km/h (1 Bft)
20.12.2021 10:38 0,6 C 6,9 C -0,4 C 0,5 C 0,3 C 0,0 C 89 % 95 % 1026,1 hPa 0,0 l/m 3,1 km/h (1 Bft) W-SW 247 0 min -1,0 C 0,3 C 4,0 km/h (1 Bft)
20.12.2021 10:43 0,8 C 6,9 C -0,3 C 1,2 C 1,2 C 0,4 C 88 % 95 % 1026,1 hPa 0,0 l/m 2,1 km/h (1 Bft) SW 225 0 min -1,0 C 1,2 C 7,1 km/h (2 Bft)
20.12.2021 10:48 0,8 C 6,9 C -0,3 C 1,0 C 1,0 C 0,2 C 88 % 95 % 1026,6 hPa 0,0 l/m 2,1 km/h (1 Bft) W-SW 247 0 min -1,0 C 1,0 C 2,1 km/h (1 Bft)
20.12.2021 10:53 0,9 C 6,9 C -0,2 C 0,9 C 0,9 C 0,0 C 88 % 94 % 1026,6 hPa 0,0 l/m 2,3 km/h (1 Bft) S 180 0 min -0,9 C 0,9 C 5,1 km/h (1 Bft)
20.12.2021 10:58 1,1 C 6,9 C -0,1 C 1,0 C 0,9 C 0,0 C 88 % 94 % 1026,6 hPa 0,0 l/m 2,3 km/h (1 Bft) SW 225 0 min -0,7 C 0,9 C 1,8 km/h (1 Bft)
20.12.2021 11:03 1,1 C 6,9 C -0,1 C 1,0 C 0,9 C 0,0 C 88 % 94 % 1026,6 hPa 0,0 l/m 2,7 km/h (1 Bft) NW 315 0 min -0,7 C 0,9 C 3,5 km/h (1 Bft)
20.12.2021 11:08 1,1 C 6,9 C -0,1 C 1,0 C 0,8 C 0,0 C 88 % 94 % 1026,2 hPa 0,0 l/m 2,7 km/h (1 Bft) W-SW 247 0 min -0,7 C 0,8 C 5,1 km/h (1 Bft)
20.12.2021 11:13 1,1 C 6,9 C 0,1 C 2,2 C 2,2 C 1,1 C 87 % 94 % 1026,2 hPa 0,0 l/m 2,4 km/h (1 Bft) W 270 0 min -0,8 C 2,2 C 3,4 km/h (1 Bft)
20.12.2021 11:18 1,2 C 6,9 C 0,1 C 3,0 C 3,0 C 1,8 C 87 % 94 % 1026,2 hPa 0,0 l/m 1,9 km/h (1 Bft) W-SW 247 0 min -0,7 C 3,0 C 3,5 km/h (1 Bft)
20.12.2021 11:23 1,2 C 6,8 C 0,3 C 3,4 C 3,4 C 2,2 C 87 % 94 % 1026,2 hPa 0,0 l/m 2,9 km/h (1 Bft) W-SW 247 0 min -0,7 C 3,4 C 4,7 km/h (1 Bft)
20.12.2021 11:28 1,2 C 6,8 C 0,3 C 4,2 C 4,2 C 3,0 C 87 % 94 % 1026,1 hPa 0,0 l/m 3,5 km/h (1 Bft) O 90 0 min -0,7 C 4,2 C 6,3 km/h (2 Bft)
20.12.2021 11:33 1,4 C 6,8 C 0,5 C 3,5 C 3,5 C 2,1 C 86 % 94 % 1026,1 hPa 0,0 l/m 4,0 km/h (1 Bft) SW 225 0 min -0,7 C 3,5 C 3,5 km/h (1 Bft)
20.12.2021 11:38 1,5 C 6,8 C 0,6 C 2,9 C 2,9 C 1,4 C 86 % 94 % 1026,1 hPa 0,0 l/m 3,7 km/h (1 Bft) W 270 0 min -0,6 C 2,9 C 2,4 km/h (1 Bft)
20.12.2021 11:43 1,5 C 6,8 C 0,7 C 3,9 C 3,9 C 2,4 C 86 % 94 % 1026,1 hPa 0,0 l/m 1,9 km/h (1 Bft) S-SW 202 0 min -0,6 C 3,9 C 1,8 km/h (1 Bft)
20.12.2021 11:48 1,6 C 6,8 C 0,9 C 3,6 C 3,6 C 2,0 C 86 % 93 % 1026,0 hPa 0,0 l/m 2,6 km/h (1 Bft) W-NW 292 0 min -0,5 C 3,6 C 3,2 km/h (1 Bft)
20.12.2021 11:53 1,7 C 6,8 C 1,1 C 3,3 C 3,3 C 1,6 C 85 % 93 % 1026,0 hPa 0,0 l/m 2,6 km/h (1 Bft) W-SW 247 0 min -0,5 C 3,3 C 2,3 km/h (1 Bft)
20.12.2021 11:58 1,6 C 6,8 C 1,2 C 3,2 C 3,2 C 1,6 C 85 % 93 % 1026,0 hPa 0,0 l/m 2,1 km/h (1 Bft) SW 225 0 min -0,6 C 3,2 C 0,0 km/h (0 Bft)
20.12.2021 12:03 1,7 C 6,8 C 1,3 C 3,1 C 3,1 C 1,4 C 85 % 93 % 1026,0 hPa 0,0 l/m 2,9 km/h (1 Bft) S-SW 202 0 min -0,5 C 3,1 C 6,4 km/h (2 Bft)
20.12.2021 12:08 1,7 C 6,8 C 1,3 C 3,1 C 3,1 C 1,4 C 85 % 93 % 1026,6 hPa 0,0 l/m 2,9 km/h (1 Bft) S-SW 202 0 min -0,5 C 3,1 C 6,4 km/h (2 Bft)
20.12.2021 12:13 1,9 C 6,8 C 1,5 C 3,2 C 3,2 C 1,3 C 85 % 93 % 1026,6 hPa 0,0 l/m 2,6 km/h (1 Bft) W-SW 247 0 min -0,3 C 3,2 C 8,4 km/h (2 Bft)
20.12.2021 12:18 1,9 C 6,8 C 1,6 C 2,8 C 2,8 C 0,9 C 85 % 92 % 1026,6 hPa 0,0 l/m 3,4 km/h (1 Bft) W-SW 247 0 min -0,3 C 2,8 C 10,0 km/h (2 Bft)
20.12.2021 12:23 1,9 C 6,8 C 1,6 C 2,7 C 2,7 C 0,8 C 84 % 92 % 1026,6 hPa 0,0 l/m 3,7 km/h (1 Bft) W-SW 247 0 min -0,5 C 2,7 C 2,3 km/h (1 Bft)
20.12.2021 12:28 1,9 C 6,8 C 1,7 C 2,9 C 2,9 C 1,0 C 84 % 92 % 1026,7 hPa 0,0 l/m 3,2 km/h (1 Bft) W-SW 247 0 min -0,5 C 2,9 C 6,0 km/h (2 Bft)
20.12.2021 12:33 1,9 C 6,8 C 1,9 C 3,5 C 3,5 C 1,6 C 84 % 92 % 1026,7 hPa 0,0 l/m 2,4 km/h (1 Bft) SW 225 0 min -0,5 C 3,5 C 4,8 km/h (1 Bft)
20.12.2021 12:38 2,0 C 6,7 C 2,1 C 3,7 C 3,7 C 1,7 C 84 % 92 % 1026,7 hPa 0,0 l/m 2,7 km/h (1 Bft) W-NW 292 0 min -0,4 C 3,7 C 7,1 km/h (2 Bft)
20.12.2021 12:43 2,1 C 6,8 C 2,2 C 3,9 C 3,9 C 1,8 C 84 % 92 % 1026,7 hPa 0,0 l/m 2,3 km/h (1 Bft) SW 225 0 min -0,3 C 3,9 C 5,5 km/h (1 Bft)
20.12.2021 12:48 2,1 C 6,7 C 2,2 C 4,0 C 4,0 C 1,9 C 84 % 91 % 1026,4 hPa 0,0 l/m 2,3 km/h (1 Bft) W 270 0 min -0,3 C 4,0 C 4,5 km/h (1 Bft)
20.12.2021 12:53 2,2 C 6,7 C 2,1 C 3,5 C 3,5 C 1,3 C 84 % 91 % 1026,4 hPa 0,0 l/m 3,5 km/h (1 Bft) SW 225 0 min -0,2 C 3,5 C 3,4 km/h (1 Bft)
20.12.2021 12:58 2,1 C 6,7 C 2,2 C 3,4 C 3,4 C 1,3 C 84 % 91 % 1026,4 hPa 0,0 l/m 3,5 km/h (1 Bft) W-SW 247 0 min -0,3 C 3,4 C 3,4 km/h (1 Bft)
20.12.2021 13:03 2,1 C 6,7 C 2,2 C 3,6 C 3,6 C 1,5 C 83 % 91 % 1026,4 hPa 0,0 l/m 2,1 km/h (1 Bft) SW 225 0 min -0,5 C 3,6 C 6,1 km/h (2 Bft)
20.12.2021 13:08 2,1 C 6,7 C 2,1 C 3,5 C 3,5 C 1,4 C 83 % 91 % 1026,3 hPa 0,0 l/m 2,4 km/h (1 Bft) S 180 0 min -0,5 C 3,5 C 4,5 km/h (1 Bft)
20.12.2021 13:13 2,1 C 6,7 C 2,1 C 3,3 C 3,3 C 1,2 C 83 % 91 % 1026,3 hPa 0,0 l/m 1,9 km/h (1 Bft) SW 225 0 min -0,5 C 3,3 C 2,7 km/h (1 Bft)
20.12.2021 13:18 2,1 C 6,7 C 2,1 C 3,2 C 3,2 C 1,1 C 83 % 91 % 1026,3 hPa 0,0 l/m 1,6 km/h (1 Bft) NW 315 0 min -0,5 C 3,2 C 2,1 km/h (1 Bft)
20.12.2021 13:23 2,2 C 6,7 C 1,9 C 3,1 C 3,1 C 0,9 C 83 % 90 % 1026,3 hPa 0,0 l/m 1,9 km/h (1 Bft) N-NW 337 0 min -0,4 C 3,1 C 1,9 km/h (1 Bft)
20.12.2021 13:28 2,2 C 6,7 C 2,0 C 3,1 C 3,1 C 0,9 C 83 % 90 % 1026,0 hPa 0,0 l/m 1,4 km/h (1 Bft) SW 225 0 min -0,4 C 3,1 C 3,7 km/h (1 Bft)
20.12.2021 13:33 2,1 C 6,7 C 2,1 C 3,1 C 3,1 C 1,0 C 83 % 91 % 1026,0 hPa 0,0 l/m 2,1 km/h (1 Bft) W-SW 247 0 min -0,5 C 3,1 C 3,4 km/h (1 Bft)
20.12.2021 13:38 2,2 C 6,7 C 2,1 C 3,1 C 3,1 C 0,9 C 83 % 91 % 1026,0 hPa 0,0 l/m 2,6 km/h (1 Bft) W-SW 247 0 min -0,4 C 3,1 C 3,5 km/h (1 Bft)
20.12.2021 13:43 2,3 C 6,7 C 2,3 C 3,1 C 3,1 C 0,8 C 83 % 91 % 1026,0 hPa 0,0 l/m 2,4 km/h (1 Bft) SW 225 0 min -0,3 C 3,1 C 3,9 km/h (1 Bft)
20.12.2021 13:48 2,3 C 6,7 C 2,3 C 3,1 C 3,1 C 0,8 C 83 % 90 % 1026,1 hPa 0,0 l/m 2,6 km/h (1 Bft) NW 315 0 min -0,3 C 3,1 C 0,0 km/h (0 Bft)
20.12.2021 13:53 2,3 C 6,7 C 2,3 C 3,2 C 3,2 C 0,9 C 83 % 90 % 1026,1 hPa 0,0 l/m 2,4 km/h (1 Bft) SW 225 0 min -0,3 C 3,2 C 4,5 km/h (1 Bft)
20.12.2021 13:58 2,3 C 6,7 C 2,3 C 3,1 C 3,1 C 0,8 C 83 % 90 % 1026,1 hPa 0,0 l/m 2,6 km/h (1 Bft) S-SW 202 0 min -0,3 C 3,1 C 4,5 km/h (1 Bft)
20.12.2021 14:03 2,2 C 6,7 C 2,3 C 3,2 C 3,2 C 1,0 C 83 % 90 % 1026,1 hPa 0,0 l/m 2,7 km/h (1 Bft) W-SW 247 0 min -0,4 C 3,2 C 3,9 km/h (1 Bft)
20.12.2021 14:08 2,2 C 6,7 C 2,2 C 3,1 C 3,1 C 0,9 C 83 % 90 % 1026,6 hPa 0,0 l/m 2,3 km/h (1 Bft) SW 225 0 min -0,4 C 3,1 C 1,9 km/h (1 Bft)
20.12.2021 14:13 2,3 C 6,7 C 2,2 C 3,1 C 3,1 C 0,8 C 83 % 90 % 1026,6 hPa 0,0 l/m 2,3 km/h (1 Bft) W-SW 247 0 min -0,3 C 3,1 C 0,0 km/h (0 Bft)
20.12.2021 14:18 2,3 C 6,7 C 2,3 C 3,5 C 3,5 C 1,2 C 83 % 90 % 1026,6 hPa 0,0 l/m 1,6 km/h (1 Bft) SW 225 0 min -0,3 C 3,5 C 0,0 km/h (0 Bft)
20.12.2021 14:23 2,4 C 6,6 C 2,4 C 4,6 C 4,6 C 2,2 C 83 % 90 % 1026,6 hPa 0,0 l/m 1,4 km/h (1 Bft) SW 225 0 min -0,2 C 4,6 C 3,5 km/h (1 Bft)
20.12.2021 14:28 2,5 C 6,6 C 2,4 C 4,7 C 4,7 C 2,2 C 83 % 90 % 1026,6 hPa 0,0 l/m 1,6 km/h (1 Bft) SW 225 0 min -0,1 C 4,7 C 0,0 km/h (0 Bft)
20.12.2021 14:33 2,5 C 6,6 C 2,4 C 4,7 C 4,7 C 2,2 C 83 % 90 % 1026,6 hPa 0,0 l/m 2,1 km/h (1 Bft) S 180 0 min -0,1 C 4,7 C 3,1 km/h (1 Bft)
20.12.2021 14:38 2,7 C 6,6 C 2,4 C 5,0 C 5,0 C 2,3 C 83 % 90 % 1026,6 hPa 0,0 l/m 2,1 km/h (1 Bft) W-SW 247 0 min 0,1 C 5,0 C 3,5 km/h (1 Bft)
20.12.2021 14:43 2,7 C 6,6 C 2,3 C 4,7 C 4,7 C 2,0 C 83 % 89 % 1026,6 hPa 0,0 l/m 2,6 km/h (1 Bft) SW 225 0 min 0,1 C 4,7 C 3,9 km/h (1 Bft)
20.12.2021 14:48 2,7 C 6,6 C 2,3 C 4,5 C 4,5 C 1,8 C 83 % 89 % 1026,2 hPa 0,0 l/m 2,9 km/h (1 Bft) W-SW 247 0 min 0,1 C 4,5 C 2,6 km/h (1 Bft)
20.12.2021 14:53 2,7 C 6,7 C 2,3 C 4,1 C 4,1 C 1,4 C 83 % 89 % 1026,2 hPa 0,0 l/m 2,4 km/h (1 Bft) N-NW 337 0 min 0,1 C 4,1 C 0,0 km/h (0 Bft)
20.12.2021 14:58 2,7 C 6,7 C 2,2 C 3,7 C 3,7 C 1,0 C 83 % 89 % 1026,2 hPa 0,0 l/m 2,4 km/h (1 Bft) W-SW 247 0 min 0,1 C 3,7 C 4,8 km/h (1 Bft)
20.12.2021 15:03 2,5 C 6,7 C 1,9 C 3,0 C 3,0 C 0,5 C 82 % 89 % 1026,2 hPa 0,0 l/m 2,4 km/h (1 Bft) SW 225 0 min -0,3 C 3,0 C 2,1 km/h (1 Bft)
20.12.2021 15:08 2,4 C 6,7 C 1,8 C 2,7 C 2,7 C 0,3 C 82 % 89 % 1026,4 hPa 0,0 l/m 2,6 km/h (1 Bft) W-SW 247 0 min -0,4 C 2,7 C 6,0 km/h (2 Bft)
20.12.2021 15:13 2,3 C 6,7 C 1,5 C 2,3 C 2,3 C 0,0 C 82 % 89 % 1026,4 hPa 0,0 l/m 1,6 km/h (1 Bft) NW 315 0 min -0,4 C 2,3 C 0,0 km/h (0 Bft)
20.12.2021 15:18 2,2 C 6,7 C 1,5 C 2,1 C 2,0 C 0,0 C 82 % 89 % 1026,4 hPa 0,0 l/m 1,3 km/h (1 Bft) W-NW 292 0 min -0,5 C 2,0 C 0,0 km/h (0 Bft)
20.12.2021 15:23 2,1 C 6,7 C 1,4 C 2,0 C 1,7 C 0,0 C 83 % 89 % 1026,4 hPa 0,0 l/m 0,3 km/h (0 Bft) W 270 0 min -0,5 C 1,7 C 0,0 km/h (0 Bft)
20.12.2021 15:28 2,0 C 6,7 C 1,2 C 1,8 C 1,4 C 0,0 C 83 % 90 % 1026,4 hPa 0,0 l/m 0,2 km/h (0 Bft) W 270 0 min -0,6 C 1,4 C 0,0 km/h (0 Bft)
20.12.2021 15:33 1,9 C 6,7 C 1,0 C 1,6 C 1,1 C 0,0 C 83 % 90 % 1026,4 hPa 0,0 l/m 0,2 km/h (0 Bft) SW 225 0 min -0,7 C 1,1 C 0,0 km/h (0 Bft)
20.12.2021 15:38 1,8 C 6,7 C 0,9 C 1,5 C 0,9 C 0,0 C 83 % 90 % 1026,4 hPa 0,0 l/m 0,0 km/h (0 Bft) W-SW 247 0 min -0,8 C 0,9 C 0,0 km/h (0 Bft)
20.12.2021 15:43 1,7 C 6,7 C 0,7 C 1,3 C 0,6 C 0,0 C 83 % 90 % 1026,4 hPa 0,0 l/m 0,2 km/h (0 Bft) W-SW 247 0 min -0,9 C 0,6 C 0,0 km/h (0 Bft)
20.12.2021 15:48 1,6 C 6,7 C 0,6 C 1,2 C 0,4 C 0,0 C 83 % 90 % 1026,9 hPa 0,0 l/m 0,2 km/h (0 Bft) S 180 0 min -1,0 C 0,4 C 0,0 km/h (0 Bft)
20.12.2021 15:53 1,5 C 6,7 C 0,5 C 1,1 C 0,2 C 0,0 C 83 % 90 % 1026,9 hPa 0,0 l/m 0,2 km/h (0 Bft) W-SW 247 0 min -1,1 C 0,2 C 0,0 km/h (0 Bft)
20.12.2021 15:58 1,4 C 6,7 C 0,3 C 0,9 C 0,0 C 0,0 C 83 % 90 % 1026,9 hPa 0,0 l/m 0,2 km/h (0 Bft) W 270 0 min -1,2 C 0,0 C 0,0 km/h (0 Bft)
20.12.2021 16:03 1,3 C 6,7 C 0,1 C 0,8 C -0,3 C 0,0 C 83 % 90 % 1026,9 hPa 0,0 l/m 0,0 km/h (0 Bft) NW 315 0 min -1,3 C -0,3 C 0,0 km/h (0 Bft)
20.12.2021 16:08 1,2 C 6,7 C 0,0 C 0,6 C -0,6 C 0,0 C 84 % 91 % 1027,0 hPa 0,0 l/m 0,0 km/h (0 Bft) S 180 0 min -1,2 C -0,6 C 0,0 km/h (0 Bft)
20.12.2021 16:13 1,2 C 6,7 C -0,1 C 0,6 C -0,6 C 0,0 C 84 % 91 % 1027,0 hPa 0,0 l/m 0,2 km/h (0 Bft) N-NW 337 0 min -1,2 C -0,6 C 3,4 km/h (1 Bft)
20.12.2021 16:18 1,1 C 6,7 C -0,2 C 0,5 C -0,6 C 0,0 C 84 % 91 % 1027,0 hPa 0,0 l/m 0,2 km/h (0 Bft) N-NO 22 0 min -1,3 C -0,6 C 0,0 km/h (0 Bft)
20.12.2021 16:23 0,9 C 6,7 C -0,3 C 0,3 C -1,0 C 0,0 C 84 % 91 % 1027,0 hPa 0,0 l/m 0,2 km/h (0 Bft) NW 315 0 min -1,5 C -1,0 C 0,0 km/h (0 Bft)
20.12.2021 16:28 0,8 C 6,7 C -0,5 C 0,2 C -1,1 C 0,0 C 84 % 91 % 1026,8 hPa 0,0 l/m 0,0 km/h (0 Bft) NW 315 0 min -1,6 C -1,1 C 0,0 km/h (0 Bft)
20.12.2021 16:33 0,7 C 6,7 C -0,7 C 0,0 C -1,3 C 0,0 C 84 % 91 % 1026,8 hPa 0,0 l/m 0,0 km/h (0 Bft) NW 315 0 min -1,7 C -1,3 C 0,0 km/h (0 Bft)
20.12.2021 16:38 0,7 C 6,7 C -0,8 C 0,0 C -1,5 C 0,0 C 84 % 91 % 1026,8 hPa 0,0 l/m 0,0 km/h (0 Bft) NW 315 0 min -1,7 C -1,5 C 0,0 km/h (0 Bft)
20.12.2021 16:43 0,4 C 6,7 C -1,1 C -0,3 C -1,7 C 0,0 C 84 % 91 % 1026,8 hPa 0,0 l/m 0,0 km/h (0 Bft) NW 315 0 min -2,0 C -1,7 C 0,0 km/h (0 Bft)
20.12.2021 16:48 0,3 C 6,8 C -1,2 C -0,4 C -1,9 C 0,0 C 84 % 91 % 1026,9 hPa 0,0 l/m 0,0 km/h (0 Bft) NW 315 0 min -2,1 C -1,9 C 0,0 km/h (0 Bft)
20.12.2021 16:53 0,0 C 6,8 C -1,4 C -0,7 C -2,0 C 0,0 C 84 % 92 % 1026,9 hPa 0,0 l/m 0,0 km/h (0 Bft) NW 315 0 min -2,4 C -2,0 C 0,0 km/h (0 Bft)
20.12.2021 16:58 -0,1 C 6,8 C -1,5 C -0,7 C -2,0 C 0,0 C 84 % 92 % 1026,9 hPa 0,0 l/m 0,0 km/h (0 Bft) N-NO 22 0 min -2,5 C -2,0 C 0,0 km/h (0 Bft)
20.12.2021 17:03 -0,2 C 6,9 C -1,6 C -0,8 C -1,9 C 0,0 C 84 % 91 % 1026,9 hPa 0,0 l/m 0,0 km/h (0 Bft) N-NO 22 0 min -2,6 C -1,9 C 0,0 km/h (0 Bft)
20.12.2021 17:08 -0,1 C 6,9 C -1,7 C -0,7 C -1,9 C 0,0 C 84 % 92 % 1027,1 hPa 0,0 l/m 0,0 km/h (0 Bft) N-NO 22 0 min -2,5 C -1,9 C 0,0 km/h (0 Bft)
20.12.2021 17:13 -0,3 C 6,9 C -1,6 C -0,8 C -1,9 C 0,0 C 85 % 92 % 1027,1 hPa 0,0 l/m 0,0 km/h (0 Bft) N-NO 22 0 min -2,5 C -1,9 C 0,0 km/h (0 Bft)
20.12.2021 17:18 -0,4 C 6,9 C -1,7 C -0,9 C -1,9 C 0,0 C 85 % 92 % 1027,1 hPa 0,0 l/m 0,0 km/h (0 Bft) N-NO 22 0 min -2,6 C -1,9 C 0,0 km/h (0 Bft)
20.12.2021 17:23 -0,3 C 6,9 C -1,7 C -0,8 C -1,9 C 0,0 C 85 % 92 % 1027,1 hPa 0,0 l/m 0,0 km/h (0 Bft) N-NO 22 0 min -2,5 C -1,9 C 0,0 km/h (0 Bft)
20.12.2021 17:28 -0,5 C 6,9 C -1,9 C -1,0 C -1,9 C 0,0 C 86 % 92 % 1027,0 hPa 0,0 l/m 0,0 km/h (0 Bft) N-NO 22 0 min -2,5 C -1,9 C 0,0 km/h (0 Bft)
20.12.2021 17:33 -0,5 C 6,9 C -1,9 C -0,9 C -1,8 C 0,0 C 86 % 93 % 1027,0 hPa 0,0 l/m 0,0 km/h (0 Bft) N-NO 22 0 min -2,5 C -1,8 C 0,0 km/h (0 Bft)
20.12.2021 17:38 -0,5 C 6,9 C -1,8 C -0,9 C -1,8 C 0,0 C 86 % 93 % 1027,0 hPa 0,0 l/m 0,0 km/h (0 Bft) N-NO 22 0 min -2,5 C -1,8 C 0,0 km/h (0 Bft)
20.12.2021 17:43 -0,5 C 6,9 C -1,9 C -1,0 C -1,9 C 0,0 C 86 % 93 % 1027,0 hPa 0,0 l/m 0,0 km/h (0 Bft) N-NO 22 0 min -2,5 C -1,9 C 0,0 km/h (0 Bft)
20.12.2021 17:48 -0,7 C 6,9 C -1,9 C -1,1 C -1,8 C 0,0 C 86 % 93 % 1027,7 hPa 0,0 l/m 0,0 km/h (0 Bft) N-NO 22 0 min -2,7 C -1,8 C 0,0 km/h (0 Bft)
20.12.2021 17:53 -0,7 C 6,9 C -2,0 C -1,1 C -1,9 C 0,0 C 86 % 93 % 1027,7 hPa 0,0 l/m 0,0 km/h (0 Bft) N-NO 22 0 min -2,7 C -1,9 C 0,0 km/h (0 Bft)
20.12.2021 17:58 -0,8 C 6,9 C -2,1 C -1,2 C -2,0 C 0,0 C 86 % 93 % 1027,7 hPa 0,0 l/m 0,0 km/h (0 Bft) N-NO 22 0 min -2,8 C -2,0 C 0,0 km/h (0 Bft)
20.12.2021 18:03 -0,9 C 6,9 C -2,1 C -1,3 C -2,2 C 0,0 C 86 % 93 % 1027,7 hPa 0,0 l/m 0,0 km/h (0 Bft) N-NO 22 0 min -2,9 C -2,2 C 0,0 km/h (0 Bft)
20.12.2021 18:08 -0,9 C 6,9 C -2,1 C -1,4 C -2,3 C 0,0 C 86 % 93 % 1027,7 hPa 0,0 l/m 0,0 km/h (0 Bft) N-NO 22 0 min -2,9 C -2,3 C 0,0 km/h (0 Bft)
20.12.2021 18:13 -1,1 C 6,9 C -2,1 C -1,5 C -2,2 C 0,0 C 87 % 93 % 1027,7 hPa 0,0 l/m 0,0 km/h (0 Bft) N-NO 22 0 min -3,0 C -2,2 C 0,0 km/h (0 Bft)
20.12.2021 18:18 -1,1 C 6,9 C -2,0 C -1,4 C -2,0 C 0,0 C 87 % 93 % 1027,7 hPa 0,0 l/m 0,0 km/h (0 Bft) N-NO 22 0 min -3,0 C -2,0 C 0,0 km/h (0 Bft)
20.12.2021 18:23 -0,9 C 6,9 C -1,9 C -1,2 C -1,8 C 0,0 C 87 % 93 % 1027,7 hPa 0,0 l/m 0,0 km/h (0 Bft) N-NO 22 0 min -2,8 C -1,8 C 0,0 km/h (0 Bft)
20.12.2021 18:28 -0,9 C 6,9 C -1,8 C -1,2 C -1,7 C 0,0 C 87 % 93 % 1027,5 hPa 0,0 l/m 0,0 km/h (0 Bft) N-NO 22 0 min -2,8 C -1,7 C 0,0 km/h (0 Bft)
20.12.2021 18:33 -0,9 C 6,9 C -1,5 C -1,0 C -1,3 C 0,0 C 87 % 94 % 1027,5 hPa 0,0 l/m 0,0 km/h (0 Bft) N-NO 22 0 min -2,8 C -1,3 C 0,0 km/h (0 Bft)
20.12.2021 18:38 -0,9 C 6,9 C -1,4 C -1,0 C -1,2 C 0,0 C 88 % 93 % 1027,5 hPa 0,0 l/m 0,0 km/h (0 Bft) N-NO 22 0 min -2,6 C -1,2 C 0,0 km/h (0 Bft)
20.12.2021 18:43 -0,7 C 6,9 C -1,3 C -0,8 C -1,1 C 0,0 C 88 % 93 % 1027,5 hPa 0,0 l/m 0,0 km/h (0 Bft) N-NO 22 0 min -2,4 C -1,1 C 0,0 km/h (0 Bft)
20.12.2021 18:48 -0,7 C 6,9 C -1,3 C -0,8 C -1,1 C 0,0 C 88 % 93 % 1027,5 hPa 0,0 l/m 0,0 km/h (0 Bft) N-NO 22 0 min -2,4 C -1,1 C 0,0 km/h (0 Bft)
20.12.2021 18:53 -0,8 C 6,9 C -1,1 C -0,9 C -1,1 C 0,0 C 88 % 94 % 1027,5 hPa 0,0 l/m 0,0 km/h (0 Bft) N-NO 22 0 min -2,5 C -1,1 C 0,0 km/h (0 Bft)
20.12.2021 18:58 -0,8 C 6,9 C -1,1 C -0,9 C -1,0 C 0,0 C 88 % 94 % 1027,5 hPa 0,0 l/m 0,0 km/h (0 Bft) W-SW 247 0 min -2,5 C -1,0 C 0,0 km/h (0 Bft)
20.12.2021 19:03 -0,8 C 6,9 C -1,0 C -0,9 C -1,0 C 0,0 C 88 % 94 % 1027,5 hPa 0,0 l/m 0,0 km/h (0 Bft) W-SW 247 0 min -2,5 C -1,0 C 0,0 km/h (0 Bft)
20.12.2021 19:08 -0,8 C 6,9 C -0,9 C -0,9 C -1,0 C 0,0 C 88 % 94 % 1027,8 hPa 0,0 l/m 0,0 km/h (0 Bft) W-SW 247 0 min -2,5 C -1,0 C 0,0 km/h (0 Bft)
20.12.2021 19:13 -0,8 C 6,9 C -0,9 C -0,8 C -0,9 C 0,0 C 88 % 94 % 1027,8 hPa 0,0 l/m 0,0 km/h (0 Bft) W-SW 247 0 min -2,5 C -0,9 C 0,0 km/h (0 Bft)
20.12.2021 19:18 -0,7 C 6,9 C -0,8 C -0,8 C -0,9 C 0,0 C 88 % 94 % 1027,8 hPa 0,0 l/m 0,0 km/h (0 Bft) W-SW 247 0 min -2,4 C -0,9 C 0,0 km/h (0 Bft)
20.12.2021 19:23 -0,7 C 6,9 C -0,8 C -0,7 C -0,7 C 0,0 C 88 % 94 % 1027,8 hPa 0,0 l/m 0,0 km/h (0 Bft) W-SW 247 0 min -2,4 C -0,7 C 0,0 km/h (0 Bft)
20.12.2021 19:28 -0,7 C 6,9 C -0,7 C -0,7 C -0,7 C 0,0 C 88 % 94 % 1027,9 hPa 0,0 l/m 0,0 km/h (0 Bft) W-SW 247 0 min -2,4 C -0,7 C 0,0 km/h (0 Bft)
20.12.2021 19:33 -0,5 C 6,8 C -0,6 C -0,5 C -0,6 C 0,0 C 88 % 94 % 1027,9 hPa 0,0 l/m 0,0 km/h (0 Bft) W-SW 247 0 min -2,2 C -0,6 C 0,0 km/h (0 Bft)
20.12.2021 19:38 -0,5 C 6,8 C -0,6 C -0,5 C -0,6 C 0,0 C 88 % 94 % 1027,9 hPa 0,0 l/m 0,0 km/h (0 Bft) W-SW 247 0 min -2,2 C -0,6 C 0,0 km/h (0 Bft)
20.12.2021 19:43 -0,5 C 6,8 C -0,6 C -0,5 C -0,6 C 0,0 C 88 % 94 % 1027,9 hPa 0,0 l/m 0,0 km/h (0 Bft) W-SW 247 0 min -2,2 C -0,6 C 0,0 km/h (0 Bft)
20.12.2021 19:48 -0,5 C 6,8 C -0,6 C -0,5 C -0,6 C 0,0 C 88 % 94 % 1028,1 hPa 0,0 l/m 0,0 km/h (0 Bft) W-SW 247 0 min -2,2 C -0,6 C 0,0 km/h (0 Bft)
20.12.2021 19:53 -0,5 C 6,8 C -0,5 C -0,5 C -0,5 C 0,0 C 88 % 94 % 1028,1 hPa 0,0 l/m 0,0 km/h (0 Bft) W-SW 247 0 min -2,2 C -0,5 C 0,0 km/h (0 Bft)
20.12.2021 19:58 -0,3 C 6,8 C -0,5 C -0,4 C -0,5 C 0,0 C 89 % 94 % 1028,1 hPa 0,0 l/m 0,0 km/h (0 Bft) W-SW 247 0 min -1,9 C -0,5 C 0,0 km/h (0 Bft)
20.12.2021 20:03 -0,4 C 6,8 C -0,5 C -0,4 C -0,5 C 0,0 C 89 % 94 % 1028,1 hPa 0,0 l/m 0,0 km/h (0 Bft) W-SW 247 0 min -2,0 C -0,5 C 0,0 km/h (0 Bft)
20.12.2021 20:08 -0,4 C 6,8 C -0,4 C -0,4 C -0,4 C 0,0 C 89 % 94 % 1028,6 hPa 0,0 l/m 0,0 km/h (0 Bft) W-SW 247 0 min -2,0 C -0,4 C 0,0 km/h (0 Bft)
20.12.2021 20:13 -0,3 C 6,8 C -0,3 C -0,3 C -0,4 C 0,0 C 89 % 94 % 1028,6 hPa 0,0 l/m 0,0 km/h (0 Bft) W-SW 247 0 min -1,9 C -0,4 C 0,0 km/h (0 Bft)
20.12.2021 20:18 -0,3 C 6,7 C -0,3 C -0,3 C -0,4 C 0,0 C 89 % 94 % 1028,6 hPa 0,0 l/m 0,0 km/h (0 Bft) W-SW 247 0 min -1,9 C -0,4 C 0,0 km/h (0 Bft)
20.12.2021 20:23 -0,3 C 6,7 C -0,3 C -0,3 C -0,3 C 0,0 C 89 % 94 % 1028,6 hPa 0,0 l/m 0,0 km/h (0 Bft) W 270 0 min -1,9 C -0,3 C 0,0 km/h (0 Bft)
20.12.2021 20:28 -0,1 C 6,7 C -0,3 C -0,1 C -0,2 C 0,0 C 89 % 94 % 1029,0 hPa 0,0 l/m 0,0 km/h (0 Bft) W 270 0 min -1,7 C -0,2 C 0,0 km/h (0 Bft)
20.12.2021 20:33 -0,2 C 6,7 C -0,2 C -0,2 C -0,2 C 0,0 C 89 % 94 % 1029,0 hPa 0,0 l/m 0,0 km/h (0 Bft) SW 225 0 min -1,8 C -0,2 C 0,0 km/h (0 Bft)
20.12.2021 20:38 -0,1 C 6,7 C -0,2 C -0,1 C -0,2 C 0,0 C 89 % 94 % 1029,0 hPa 0,0 l/m 0,0 km/h (0 Bft) S-SW 202 0 min -1,7 C -0,2 C 0,0 km/h (0 Bft)
20.12.2021 20:43 -0,1 C 6,7 C -0,2 C -0,1 C -0,1 C 0,0 C 89 % 94 % 1029,0 hPa 0,0 l/m 0,0 km/h (0 Bft) S-SW 202 0 min -1,7 C -0,1 C 0,0 km/h (0 Bft)
20.12.2021 20:48 -0,1 C 6,7 C -0,2 C -0,1 C -0,1 C 0,0 C 89 % 94 % 1028,2 hPa 0,0 l/m 0,0 km/h (0 Bft) S-SW 202 0 min -1,7 C -0,1 C 0,0 km/h (0 Bft)
20.12.2021 20:53 -0,1 C 6,7 C -0,2 C -0,1 C -0,2 C 0,0 C 89 % 94 % 1028,2 hPa 0,0 l/m 0,0 km/h (0 Bft) S-SW 202 0 min -1,7 C -0,2 C 0,0 km/h (0 Bft)
20.12.2021 21:37 -0,1 C 6,7 C -0,2 C -0,2 C -0,3 C 0,0 C 89 % 94 % 1028,4 hPa 0,0 l/m 0,0 km/h (0 Bft) S-SW 202 0 min -1,7 C -0,3 C 0,0 km/h (0 Bft)
20.12.2021 21:40 -0,1 C 6,7 C -0,1 C -0,2 C -0,3 C 0,0 C 89 % 94 % 1028,4 hPa 0,0 l/m 0,0 km/h (0 Bft) S-SW 202 0 min -1,7 C -0,3 C 0,0 km/h (0 Bft)
20.12.2021 21:45 -0,1 C 6,7 C -0,2 C -0,2 C -0,3 C 0,0 C 89 % 94 % 1028,4 hPa 0,0 l/m 0,0 km/h (0 Bft) S-SW 202 0 min -1,7 C -0,3 C 0,0 km/h (0 Bft)
20.12.2021 21:50 -0,1 C 6,7 C -0,2 C -0,2 C -0,3 C 0,0 C 89 % 94 % 1028,4 hPa 0,0 l/m 0,0 km/h (0 Bft) S-SW 202 0 min -1,7 C -0,3 C 0,0 km/h (0 Bft)
20.12.2021 21:55 -0,1 C 6,7 C -0,2 C -0,2 C -0,3 C 0,0 C 89 % 94 % 1028,4 hPa 0,0 l/m 0,0 km/h (0 Bft) NW 315 0 min -1,7 C -0,3 C 0,0 km/h (0 Bft)
20.12.2021 22:00 -0,1 C 6,7 C -0,2 C -0,1 C -0,2 C 0,0 C 89 % 94 % 1028,4 hPa 0,0 l/m 0,0 km/h (0 Bft) NW 315 0 min -1,7 C -0,2 C 0,0 km/h (0 Bft)
20.12.2021 22:05 -0,1 C 6,7 C -0,1 C -0,1 C -0,2 C 0,0 C 89 % 94 % 1028,4 hPa 0,0 l/m 0,0 km/h (0 Bft) NW 315 0 min -1,7 C -0,2 C 0,0 km/h (0 Bft)
20.12.2021 22:11 -0,1 C 6,7 C -0,1 C -0,1 C -0,2 C 0,0 C 89 % 94 % 1028,8 hPa 0,0 l/m 0,0 km/h (0 Bft) N 0 0 min -1,7 C -0,2 C 0,0 km/h (0 Bft)
20.12.2021 22:13 -0,1 C 6,7 C -0,1 C -0,1 C -0,2 C 0,0 C 89 % 94 % 1028,8 hPa 0,0 l/m 0,0 km/h (0 Bft) SW 225 0 min -1,7 C -0,2 C 0,0 km/h (0 Bft)
20.12.2021 22:18 -0,1 C 6,7 C -0,1 C -0,1 C -0,2 C 0,0 C 89 % 94 % 1028,8 hPa 0,0 l/m 0,0 km/h (0 Bft) SW 225 0 min -1,7 C -0,2 C 0,0 km/h (0 Bft)
20.12.2021 22:23 -0,1 C 6,7 C -0,1 C -0,1 C -0,2 C 0,0 C 89 % 94 % 1028,8 hPa 0,0 l/m 0,0 km/h (0 Bft) SW 225 0 min -1,7 C -0,2 C 0,0 km/h (0 Bft)
20.12.2021 22:28 -0,1 C 6,7 C -0,1 C -0,1 C -0,2 C 0,0 C 89 % 94 % 1028,8 hPa 0,0 l/m 0,0 km/h (0 Bft) SW 225 0 min -1,7 C -0,2 C 0,0 km/h (0 Bft)
20.12.2021 22:33 -0,1 C 6,7 C -0,1 C -0,1 C -0,2 C 0,0 C 89 % 94 % 1028,8 hPa 0,0 l/m 0,0 km/h (0 Bft) SW 225 0 min -1,7 C -0,2 C 0,0 km/h (0 Bft)
20.12.2021 22:34 -0,1 C 6,7 C -0,1 C -0,1 C -0,2 C 0,0 C 89 % 94 % 1028,8 hPa 0,0 l/m 0,0 km/h (0 Bft) SW 225 0 min -1,7 C -0,2 C 0,0 km/h (0 Bft)
20.12.2021 22:40 -0,1 C 6,7 C -0,1 C -0,1 C -0,2 C 0,0 C 89 % 94 % 1028,8 hPa 0,0 l/m 0,0 km/h (0 Bft) SW 225 0 min -1,7 C -0,2 C 0,0 km/h (0 Bft)
20.12.2021 22:45 -0,1 C 6,7 C -0,1 C -0,1 C -0,2 C 0,0 C 89 % 94 % 1028,8 hPa 0,0 l/m 0,0 km/h (0 Bft) SW 225 0 min -1,7 C -0,2 C 0,0 km/h (0 Bft)
20.12.2021 22:50 -0,1 C 6,7 C -0,1 C -0,1 C -0,2 C 0,0 C 89 % 94 % 1028,4 hPa 0,0 l/m 0,0 km/h (0 Bft) SW 225 0 min -1,7 C -0,2 C 0,0 km/h (0 Bft)
20.12.2021 22:55 -0,1 C 6,7 C -0,1 C -0,2 C -0,3 C 0,0 C 89 % 94 % 1028,4 hPa 0,0 l/m 0,0 km/h (0 Bft) SW 225 0 min -1,7 C -0,3 C 0,0 km/h (0 Bft)
20.12.2021 23:00 -0,1 C 6,7 C -0,1 C -0,2 C -0,3 C 0,0 C 89 % 94 % 1028,4 hPa 0,0 l/m 0,0 km/h (0 Bft) SW 225 0 min -1,7 C -0,3 C 0,0 km/h (0 Bft)
20.12.2021 23:05 -0,1 C 6,7 C -0,2 C -0,2 C -0,3 C 0,0 C 89 % 94 % 1028,4 hPa 0,0 l/m 0,0 km/h (0 Bft) S-SW 202 0 min -1,7 C -0,3 C 0,0 km/h (0 Bft)
20.12.2021 23:10 -0,1 C 6,7 C -0,1 C -0,2 C -0,3 C 0,0 C 89 % 94 % 1028,2 hPa 0,0 l/m 0,0 km/h (0 Bft) S-SW 202 0 min -1,7 C -0,3 C 0,0 km/h (0 Bft)
20.12.2021 23:15 -0,1 C 6,7 C -0,1 C -0,1 C -0,2 C 0,0 C 89 % 94 % 1028,2 hPa 0,0 l/m 0,2 km/h (0 Bft) SW 225 0 min -1,7 C -0,2 C 3,1 km/h (1 Bft)
20.12.2021 23:20 -0,1 C 6,7 C -0,1 C -0,1 C -0,2 C 0,0 C 89 % 94 % 1028,2 hPa 0,0 l/m 0,2 km/h (0 Bft) SW 225 0 min -1,7 C -0,2 C 0,0 km/h (0 Bft)
20.12.2021 23:25 -0,1 C 6,7 C -0,1 C -0,1 C -0,1 C 0,0 C 89 % 94 % 1028,2 hPa 0,0 l/m 0,0 km/h (0 Bft) W-SW 247 0 min -1,7 C -0,1 C 0,0 km/h (0 Bft)
20.12.2021 23:30 -0,1 C 6,7 C -0,1 C -0,1 C -0,1 C 0,0 C 89 % 94 % 1028,7 hPa 0,0 l/m 0,0 km/h (0 Bft) S-SW 202 0 min -1,7 C -0,1 C 0,0 km/h (0 Bft)
20.12.2021 23:35 -0,1 C 6,7 C -0,1 C -0,1 C -0,1 C 0,0 C 89 % 94 % 1028,7 hPa 0,0 l/m 0,2 km/h (0 Bft) S-SW 202 0 min -1,7 C -0,1 C 2,1 km/h (1 Bft)
20.12.2021 23:40 -0,1 C 6,7 C -0,1 C -0,1 C -0,1 C 0,0 C 89 % 94 % 1028,7 hPa 0,0 l/m 0,2 km/h (0 Bft) SW 225 0 min -1,7 C -0,1 C 0,0 km/h (0 Bft)
20.12.2021 23:45 -0,1 C 6,7 C -0,1 C -0,1 C -0,1 C 0,0 C 89 % 94 % 1028,7 hPa 0,0 l/m 0,0 km/h (0 Bft) S 180 0 min -1,7 C -0,1 C 0,0 km/h (0 Bft)
20.12.2021 23:50 -0,1 C 6,7 C -0,1 C -0,1 C -0,2 C 0,0 C 89 % 94 % 1028,2 hPa 0,0 l/m 0,0 km/h (0 Bft) S 180 0 min -1,7 C -0,2 C 0,0 km/h (0 Bft)
20.12.2021 23:55 -0,1 C 6,7 C -0,1 C -0,1 C -0,2 C 0,0 C 89 % 94 % 1028,2 hPa 0,0 l/m 0,0 km/h (0 Bft) S 180 0 min -1,7 C -0,2 C 0,0 km/h (0 Bft)
_ Min-Zeit 18:13 14:23 17:58 18:13 18:08 00:08 15:03 14:43 00:08 - 03:03 - - - 18:13 18:08 00:03
Minimum _ -1,1 C 6,6 C -2,1 C -1,5 C -2,3 C 0,0 C 82 % 89 % 1022,6 hPa - 0,0 km/h (0 Bft) - - - -3,0 C -2,3 C 0,0 km/h (0 Bft)
_ Max-Zeit 00:03 00:03 00:03 14:38 14:38 11:28 04:28 04:03 20:28 00:03 11:33 - - 00:03 00:03 14:38 00:13
Maximum _ 4,5 C 8,2 C 3,7 C 5,0 C 5,0 C 3,0 C 89 % 95 % 1029,0 hPa 0,0 l/m 4,0 km/h
SW (1 Bft)
- - 0 min 2,5 C 5,0 C 10,8 km/h
W (2 Bft)
Durchschnitt _ 0,8 C 7,2 C 0,0 C 0,7 C 0,2 C 0,2 C 87 % 93 % 1026,0 hPa #0,0 l/m 1,1 km/h (1 Bft) W-SW - #0 min. -1,1 C 0,2 C 1,6 km/h (1 Bft)
2021 www.wetterstation-wechselburg.de